[[{"header":{"parameterUnit":"m.s-1","parameterCategory":1,"la1":30.2991,"la2":30.254,"lo1":-89.0895,"lo2":-89.0444,"dy":0.0017,"dx":0.0017,"nx":28,"ny":28,"refTime":"2024-05-04T21:00:00:Z","depth":0,"parameterNumber":2,"parameterNumberName":"U-component_of_WINDS"},"data":[0,0,0,0,0,0,0,0,0,0,0,0,0,0,0,0,0,0,0,0,0,0,0,0,0,0,0,0,0,0,0,0,0,0,0,0,0,0,0,0,0,0,0,0,0,0,0,0,0,0,0,0,0,0,0,0,0,0,-1.0436,-1.0436,0,-1.0439,-1.0439,-1.0439,-1.0435,-1.0435,-1.0435,-1.0435,-1.0438,-1.0439,-1.0439,0,0,0,0,0,0,0,0,0,0,0,0,0,-1.0428,-1.0428,-1.0436,-1.0436,-1.0436,-1.0439,-1.0439,-1.0439,-1.0435,-1.0435,-1.0435,-1.0435,-1.0438,-1.0439,-1.0439,0,0,0,0,0,0,0,0,0,0,0,0,0,-1.0431,-1.0428,-1.0436,-1.0435,-1.0435,-1.0439,-1.0439,-1.0439,-1.0435,-1.0435,-1.0435,-1.0435,-1.0438,-1.0439,-1.0439,-1.0445,0,0,-1.044,-1.044,0,0,0,0,0,0,0,0,-1.0431,-1.0432,-1.0435,-1.0435,-1.0435,-1.0437,-1.0437,-1.0441,-1.0435,-1.0435,-1.0435,-1.0435,-1.0438,-1.0438,-1.0439,-1.0445,-1.0445,-1.044,-1.044,-1.044,-1.044,0,0,0,0,0,0,0,-1.0431,-1.0431,-1.0437,-1.0435,-1.0435,-1.0434,-1.0434,-1.0438,-1.0438,-1.0435,-1.0435,-1.0435,-1.0438,-1.0439,-1.0439,-1.0445,-1.044,-1.044,-1.044,-1.044,-1.0456,-1.0456,0,0,0,0,0,0,-1.0431,-1.0431,-1.0437,-1.0437,-1.0432,-1.0434,-1.0435,-1.0436,-1.0438,-1.0438,-1.0435,-1.0435,-1.0439,-1.0439,-1.0439,-1.0446,-1.044,-1.044,-1.0441,-1.0456,-1.0456,-1.0456,0,0,0,0,0,0,-1.0431,-1.0431,-1.0437,-1.0434,-1.0435,-1.0435,-1.0436,-1.0436,-1.0437,-1.0438,-1.0438,-1.0437,-1.0438,-1.0439,-1.0443,-1.0446,-1.0441,-1.0441,-1.0455,-1.0456,-1.0456,-1.046,0,0,0,0,0,0,-1.043,-1.0431,-1.0433,-1.0434,-1.0435,-1.0441,-1.0437,-1.0436,-1.0438,-1.0437,-1.0439,-1.0439,-1.0438,-1.0443,-1.0444,-1.0447,-1.0441,-1.0455,-1.0455,-1.0456,-1.046,-1.0461,-1.0462,0,0,0,0,0,-1.043,-1.0435,-1.0434,-1.0434,-1.0438,-1.0441,-1.0441,-1.044,-1.0438,-1.044,-1.0441,-1.0439,-1.0446,-1.0443,-1.0444,-1.0447,-1.0455,-1.0455,-1.0456,-1.046,-1.0461,-1.0462,0,0,0,0,0,0,-1.0434,-1.0435,-1.0434,-1.0438,-1.044,-1.044,-1.0443,-1.0442,-1.0444,-1.0443,-1.0442,-1.0442,-1.0447,-1.0448,-1.0445,-1.0453,-1.045,-1.0451,-1.0453,-1.0454,-1.0454,-1.0454,-1.0441,0,0,0,0,0,-1.0436,-1.0438,-1.0439,-1.0443,-1.0444,-1.0443,-1.0445,-1.0444,-1.0445,-1.0446,-1.0446,-1.0448,-1.045,-1.0452,-1.0454,-1.046,-1.046,-1.0463,-1.0463,-1.0464,-1.0465,-1.0468,-1.0469,-1.0458,-1.0458,-1.0458,0,0,-1.0439,-1.044,-1.0441,-1.0444,-1.0445,-1.0447,-1.0444,-1.0447,-1.0449,-1.0446,-1.045,-1.0451,-1.0452,-1.0457,-1.046,-1.0458,-1.0468,-1.0465,-1.0465,-1.0466,-1.0468,-1.0469,-1.047,-1.0458,-1.0458,-1.0458,0,0,-1.0446,-1.0447,-1.045,-1.0451,-1.0453,-1.0452,-1.0453,-1.0454,-1.0454,-1.0458,-1.0456,-1.0459,-1.0463,-1.0465,-1.0466,-1.0473,-1.0472,-1.0474,-1.0478,-1.0481,-1.0482,-1.0483,-1.0486,-1.0487,-1.0475,-1.0475,-1.0475,0,-1.045,-1.0454,-1.0453,-1.0456,-1.0457,-1.0454,-1.0458,-1.0459,-1.0461,-1.0462,-1.046,-1.0466,-1.0467,-1.0472,-1.0474,-1.0475,-1.0476,-1.0474,-1.0482,-1.0483,-1.0484,-1.0486,-1.0487,-1.0475,-1.0475,-1.0475,-1.0475,0,-1.0459,-1.0461,-1.0464,-1.0466,-1.0467,-1.0471,-1.047,-1.0472,-1.0471,-1.0471,-1.0475,-1.0476,-1.0479,-1.048,-1.0479,-1.0485,-1.0484,-1.0482,-1.0479,-1.0485,-1.0487,-1.0488,-1.0475,-1.0475,-1.0475,-1.0475,0,0,-1.0469,-1.047,-1.0471,-1.0471,-1.0473,-1.0475,-1.0478,-1.048,-1.0482,-1.0483,-1.0486,-1.049,-1.0488,-1.049,-1.0489,-1.0491,-1.0497,-1.0489,-1.0489,-1.0491,-1.0504,-1.0505,-1.0507,-1.0496,-1.0496,-1.0497,-1.0504,0,-1.0476,-1.0482,-1.048,-1.0486,-1.0488,-1.0486,-1.0489,-1.049,-1.049,-1.0492,-1.0492,-1.0495,-1.0493,-1.0493,-1.0496,-1.0496,-1.05,-1.0496,-1.0499,-1.0499,-1.0499,-1.0508,-1.051,-1.0516,-1.0505,-1.0505,-1.0505,0,-1.0485,-1.0487,-1.0492,-1.0493,-1.0494,-1.0497,-1.0499,-1.0501,-1.0502,-1.0502,-1.0503,-1.0502,-1.0506,-1.0502,-1.0507,-1.0504,-1.0505,-1.0506,-1.0506,-1.0506,-1.0503,-1.0509,-1.0519,-1.052,-1.0507,-1.0506,-1.0506,0,-1.0492,-1.0496,-1.0499,-1.05,-1.0501,-1.0503,-1.0503,-1.0504,-1.0506,-1.0507,-1.0508,-1.0511,-1.0512,-1.0514,-1.0513,-1.0511,-1.0518,-1.0515,-1.0518,-1.0518,-1.052,-1.052,-1.053,-1.0521,-1.0521,-1.0521,-1.0521,0,-1.05,-1.0504,-1.0503,-1.0505,-1.0509,-1.0508,-1.0512,-1.0512,-1.0513,-1.0515,-1.0513,-1.0516,-1.0515,-1.0517,-1.0517,-1.0521,-1.0521,-1.0522,-1.0521,-1.0522,-1.0522,-1.0523,-1.0522,-1.0521,-1.0521,-1.0521,-1.0521,0,-1.0509,-1.0508,-1.0512,-1.0512,-1.0513,-1.0516,-1.0516,-1.0518,-1.0518,-1.0521,-1.0522,-1.0522,-1.0524,-1.0524,-1.0527,-1.0527,-1.0532,-1.0531,-1.0531,-1.0531,-1.0535,-1.0534,-1.0546,-1.0548,-1.0537,-1.0537,-1.0537,0,-1.0514,-1.0517,-1.0518,-1.0519,-1.052,-1.0522,-1.0523,-1.0522,-1.0523,-1.0525,-1.0527,-1.0529,-1.0531,-1.0536,-1.0536,-1.0538,-1.0538,-1.0542,-1.0538,-1.0538,-1.0538,-1.0538,-1.0538,-1.0542,-1.0542,-1.0543,-1.0543,0,-1.0524,-1.0524,-1.0526,-1.0527,-1.0529,-1.053,-1.0531,-1.0533,-1.0531,-1.0533,-1.0536,-1.0537,-1.054,-1.0543,-1.0545,-1.0545,-1.0544,-1.0544,-1.0545,-1.0545,-1.0545,-1.0545,-1.0533,-1.0544,-1.0543,-1.0543,-1.0543,-1.0543,-1.0532,-1.0534,-1.0535,-1.0537,-1.0537,-1.0538,-1.0541,-1.054,-1.0542,-1.0545,-1.0544,-1.0547,-1.0548,-1.055,-1.0551,-1.0553,-1.0552,-1.0553,-1.0554,-1.0554,-1.0555,-1.0545,-1.0554,-1.0554,-1.0554,-1.0554,-1.0554,0,-1.0542,-1.0542,-1.0544,-1.0545,-1.0547,-1.0545,-1.0546,-1.0548,-1.055,-1.0551,-1.0553,-1.0556,-1.0558,-1.0558,-1.056,-1.0562,-1.0562,-1.0563,-1.0563,-1.0563,-1.0556,-1.0555,-1.0563,-1.0563,-1.0563,-1.0563,-1.0563,-1.0563,-1.0547,-1.0551,-1.055,-1.0554,-1.0554,-1.0557,-1.0558,-1.0559,-1.0559,-1.0563,-1.0564,-1.0564,-1.0565,-1.0567,-1.0569,-1.0569,-1.057,-1.0572,-1.0572,-1.0565,-1.0564,-1.0563,-1.0562,-1.0572,-1.0572,-1.0579,-1.0579,-1.0579]},{"header":{"parameterUnit":"m.s-1","parameterCategory":1,"la1":30.2991,"la2":30.254,"lo1":-89.0895,"lo2":-89.0444,"dy":0.0017,"dx":0.0017,"nx":28,"ny":28,"refTime":"2024-05-04T21:00:00:Z","depth":0,"parameterNumber":3,"parameterNumberName":"V-component_of_WINDS"},"data":[0,0,0,0,0,0,0,0,0,0,0,0,0,0,0,0,0,0,0,0,0,0,0,0,0,0,0,0,0,0,0,0,0,0,0,0,0,0,0,0,0,0,0,0,0,0,0,0,0,0,0,0,0,0,0,0,0,0,4.1786,4.1785,0,4.1708,4.1707,4.1706,4.1661,4.1661,4.166,4.166,4.1575,4.1573,4.1571,0,0,0,0,0,0,0,0,0,0,0,0,0,4.1892,4.189,4.1786,4.1785,4.1784,4.1708,4.1707,4.1706,4.1661,4.1661,4.166,4.166,4.1576,4.1573,4.1571,0,0,0,0,0,0,0,0,0,0,0,0,0,4.1833,4.189,4.1786,4.1752,4.1749,4.1708,4.1707,4.1705,4.1661,4.1661,4.166,4.166,4.1577,4.1574,4.157,4.1556,0,0,4.1561,4.1559,0,0,0,0,0,0,0,0,4.1837,4.1829,4.1758,4.1755,4.175,4.1694,4.1713,4.1655,4.1661,4.1694,4.166,4.166,4.1614,4.1608,4.1594,4.1552,4.1548,4.156,4.1558,4.1557,4.1556,0,0,0,0,0,0,0,4.1841,4.1832,4.1755,4.1757,4.1752,4.174,4.1731,4.1702,4.1656,4.1691,4.1688,4.1679,4.1612,4.1597,4.1592,4.1547,4.1561,4.1558,4.1556,4.1554,4.149,4.149,0,0,0,0,0,0,4.1851,4.1836,4.1757,4.1752,4.1794,4.1738,4.1729,4.1712,4.1657,4.1648,4.168,4.1677,4.1603,4.1595,4.1588,4.1568,4.1557,4.1554,4.1552,4.149,4.149,4.149,0,0,0,0,0,0,4.1853,4.1844,4.176,4.1793,4.1782,4.1737,4.1718,4.1711,4.1695,4.1648,4.1639,4.1673,4.1602,4.1593,4.1565,4.1565,4.1553,4.155,4.149,4.149,4.149,4.1528,0,0,0,0,0,0,4.1856,4.1845,4.184,4.1794,4.178,4.1739,4.1718,4.1709,4.1691,4.1687,4.1639,4.1631,4.1601,4.157,4.1562,4.156,4.1547,4.1489,4.149,4.149,4.1526,4.1529,4.1532,0,0,0,0,0,4.186,4.1852,4.184,4.183,4.1773,4.1739,4.1731,4.1699,4.1691,4.1685,4.1655,4.1632,4.1566,4.1567,4.1558,4.1555,4.1489,4.149,4.149,4.1525,4.1529,4.1532,0,0,0,0,0,0,4.1896,4.1845,4.1831,4.1807,4.1779,4.1732,4.1722,4.1703,4.1674,4.1672,4.1632,4.1621,4.1597,4.1573,4.1575,4.1539,4.1525,4.1524,4.1555,4.1558,4.1561,4.1567,4.1545,0,0,0,0,0,4.1902,4.1881,4.1836,4.182,4.1806,4.1767,4.1751,4.1729,4.1697,4.1683,4.1651,4.1619,4.1591,4.1573,4.1545,4.1523,4.1512,4.1517,4.1519,4.1522,4.1521,4.1509,4.151,4.1492,4.1492,4.1492,0,0,4.1913,4.1882,4.187,4.1826,4.1801,4.1779,4.1757,4.1734,4.1717,4.1679,4.1652,4.1627,4.1589,4.1564,4.1552,4.1543,4.1524,4.1523,4.1525,4.1522,4.1509,4.1511,4.1513,4.1492,4.1492,4.1492,0,0,4.1921,4.1895,4.188,4.1856,4.1819,4.1794,4.179,4.1747,4.173,4.1702,4.1674,4.1653,4.1605,4.158,4.156,4.1563,4.1541,4.1554,4.1568,4.1557,4.1558,4.1559,4.1561,4.1561,4.1553,4.1554,4.1554,0,4.1938,4.1905,4.1873,4.1853,4.1835,4.1803,4.1786,4.1764,4.1719,4.1707,4.1699,4.1641,4.1612,4.1582,4.1583,4.1568,4.1563,4.1559,4.1561,4.1562,4.1562,4.1563,4.1563,4.1555,4.1555,4.1555,4.1555,0,4.1928,4.1906,4.1897,4.1858,4.1838,4.182,4.1785,4.1769,4.175,4.1725,4.1698,4.1664,4.1629,4.162,4.1599,4.1587,4.1583,4.1569,4.1554,4.1567,4.1567,4.1566,4.1558,4.1557,4.1557,4.1556,0,0,4.1954,4.19,4.1897,4.188,4.1838,4.182,4.18,4.1769,4.1756,4.1727,4.1709,4.1672,4.1659,4.1637,4.1614,4.1604,4.1609,4.1591,4.1589,4.1595,4.1594,4.1605,4.1606,4.1595,4.1595,4.1595,4.1598,0,4.1956,4.1921,4.1894,4.1869,4.1848,4.1819,4.1802,4.1775,4.1752,4.173,4.1704,4.1678,4.1663,4.165,4.1639,4.1611,4.1608,4.161,4.1578,4.1577,4.1588,4.1606,4.1617,4.1621,4.1597,4.1597,4.1597,0,4.1953,4.1928,4.1902,4.1865,4.1855,4.184,4.181,4.179,4.1758,4.1742,4.172,4.1697,4.1675,4.1664,4.1633,4.1635,4.162,4.1605,4.1604,4.1599,4.1587,4.1601,4.1621,4.1622,4.1597,4.1597,4.1597,0,4.1975,4.1935,4.1914,4.19,4.1856,4.1847,4.1828,4.1796,4.178,4.1753,4.1742,4.1712,4.1695,4.1673,4.1642,4.1637,4.1614,4.16,4.16,4.1601,4.1595,4.1596,4.1613,4.1587,4.1587,4.1587,4.1587,0,4.198,4.1965,4.1924,4.1911,4.1894,4.1863,4.1846,4.1825,4.1798,4.178,4.1752,4.1736,4.1696,4.1675,4.1651,4.163,4.1622,4.1608,4.1602,4.161,4.1612,4.1599,4.1598,4.1587,4.1587,4.1587,4.1587,0,4.2001,4.1973,4.1949,4.1911,4.1901,4.189,4.1857,4.1843,4.182,4.1798,4.1791,4.1754,4.1728,4.1696,4.1658,4.1642,4.1623,4.1614,4.1635,4.1631,4.1632,4.1633,4.1641,4.1641,4.1616,4.1616,4.1616,0,4.2005,4.1994,4.1956,4.1943,4.1926,4.1905,4.1889,4.1858,4.1842,4.1807,4.1798,4.177,4.1746,4.1706,4.1675,4.1647,4.1637,4.1642,4.1632,4.1642,4.1637,4.1638,4.1637,4.1644,4.1644,4.1645,4.1645,0,4.2017,4.2004,4.1983,4.1958,4.194,4.1917,4.1894,4.1885,4.1849,4.1832,4.1807,4.1789,4.1753,4.1726,4.1695,4.1674,4.1653,4.1649,4.1647,4.1655,4.1668,4.1662,4.1641,4.1648,4.1648,4.1648,4.1647,4.1647,4.2029,4.2019,4.1991,4.1968,4.1948,4.1928,4.1914,4.1891,4.1869,4.1839,4.1822,4.1797,4.1767,4.1723,4.1704,4.1684,4.1676,4.1673,4.1673,4.1673,4.1676,4.1673,4.1678,4.1677,4.1677,4.1677,4.1677,0,4.2039,4.2021,4.2001,4.1971,4.1953,4.1939,4.1912,4.1898,4.1878,4.1853,4.1831,4.1802,4.1777,4.1745,4.1718,4.1708,4.1698,4.1701,4.1701,4.1697,4.1684,4.1688,4.171,4.171,4.171,4.171,4.171,4.171,4.2043,4.2024,4.2009,4.198,4.1961,4.1938,4.1925,4.1906,4.1886,4.1856,4.1836,4.1816,4.1789,4.1759,4.1735,4.1727,4.1718,4.1724,4.1713,4.1701,4.1698,4.1695,4.1699,4.1723,4.1723,4.1728,4.1728,4.1728]}]]